Richard Lloyd Jones Jr Airport Tulsa US
ICAO: KRVS
IATA: RVS
Category: Medium
Scheduled Services: No

Elevation: 638 ft
TransAlt. 18000 ft.

Airport Communications:
TULSA APP/DEP:119.85
ATIS:126.5
CLNC DEL:124.5
CTAF:120.3
GND:121.7
RIVERSIDE TWR:119.2
UNICOM:122.95

KRVS Zoom In..

If you have problems with the map follow the link
https://www.worldairports.se/pages/airport.php?
ICAO=KRVS

Runways:

(A) RW 01L length 5102 ft width 100 ft
ILS 109.95 / hdg 7

(B) RW 01R length 4208 ft width 100 ft
---- / hdg 7

(C) RW 13 length 2641 ft width 50 ft
---- / hdg 127

(D) RW 19L length 4208 ft width 100 ft
---- / hdg 187

(E) RW 19R length 5102 ft width 100 ft
---- / hdg 187

(F) RW 31 length 2641 ft width 50 ft
---- / hdg 307

Location; KRVS
Day. 20 / Time. 08.53 Zulu
* Altimeter: 30.62
* Temperature: -03° c. -26.6°f.
* Wind from: 020° Speed 05 kn.
Dewpoint: -09° c.
Visibility: 10 Statute Miles.
Clouds: Clear (automated report).

KRVS 200853Z AUTO 02005KT 10SM CLR M03/M09 A3062 RMK AO2 SLP379 T10331089 53004


Wind From 020°
Speed 05 kn.

 
 
jpsmedia worldairports.se 2020   terms of use